Previsão horária em Abdrahmanovo

Hoje, 30 Setembro, Quarta-feira

Tempo Temperatura Precipitação Vento Pressão Humidade
00:00 +12°C° 0 mm 2 m/s 763 mmHg 83%
01:00 +12°C° 0 mm 2 m/s 763 mmHg 84%
02:00 +12°C° 0 mm 1 m/s 763 mmHg 85%
03:00 +11°C° 0 mm 1 m/s 763 mmHg 85%
04:00 +11°C° 0 mm 1 m/s 763 mmHg 87%
05:00 +11°C° 0 mm 1 m/s 763 mmHg 87%
06:00 +11°C° 0 mm 1 m/s 763 mmHg 87%
07:00 +11°C° 0 mm 1 m/s 763 mmHg 87%
08:00 +13°C° 0 mm 1 m/s 763 mmHg 80%
09:00 +14°C° 0 mm 1 m/s 763 mmHg 73%
10:00 +16°C° 0 mm 2 m/s 763 mmHg 65%
11:00 +17°C° 0 mm 2 m/s 763 mmHg 61%
12:00 +18°C° 0 mm 2 m/s 763 mmHg 56%
13:00 +19°C° 0 mm 2 m/s 763 mmHg 52%
14:00 +19°C° 0 mm 2 m/s 762 mmHg 52%
15:00 +20°C° 0 mm 2 m/s 762 mmHg 52%
16:00 +20°C° 0 mm 2 m/s 762 mmHg 52%
17:00 +18°C° 0 mm 2 m/s 762 mmHg 58%
18:00 +17°C° 0 mm 2 m/s 762 mmHg 64%
19:00 +15°C° 0 mm 1 m/s 762 mmHg 70%
20:00 +15°C° 0 mm 1 m/s 762 mmHg 74%
21:00 +14°C° 0 mm 1 m/s 762 mmHg 77%
22:00 +14°C° 0 mm 1 m/s 762 mmHg 80%
23:00 +13°C° 0 mm 1 m/s 762 mmHg 82%

Amanhã, 1 Outubro, Quinta-feira

Tempo Temperatura Precipitação Vento Pressão Humidade
00:00 +13°C° 0 mm 1 m/s 762 mmHg 85%
01:00 +12°C° 0 mm 1 m/s 762 mmHg 87%
02:00 +12°C° 0 mm 1 m/s 762 mmHg 87%
03:00 +12°C° 0 mm 1 m/s 763 mmHg 88%
04:00 +11°C° 0 mm 0 m/s 763 mmHg 88%
05:00 +11°C° 0 mm 0 m/s 763 mmHg 88%
06:00 +10°C° 0 mm 0 m/s 762 mmHg 88%
07:00 +11°C° 0 mm 1 m/s 762 mmHg 89%
08:00 +13°C° 0 mm 1 m/s 762 mmHg 82%
09:00 +14°C° 0 mm 1 m/s 762 mmHg 76%
10:00 +16°C° 0 mm 1 m/s 762 mmHg 69%
11:00 +18°C° 0 mm 1 m/s 762 mmHg 64%
12:00 +19°C° 0 mm 1 m/s 762 mmHg 59%
13:00 +20°C° 0 mm 1 m/s 762 mmHg 55%
14:00 +20°C° 0 mm 1 m/s 762 mmHg 54%
15:00 +20°C° 0 mm 1 m/s 762 mmHg 53%
16:00 +19°C° 0 mm 0 m/s 761 mmHg 52%
17:00 +19°C° 0 mm 1 m/s 761 mmHg 57%
18:00 +18°C° 0 mm 1 m/s 761 mmHg 63%
19:00 +15°C° 0 mm 1 m/s 761 mmHg 68%
20:00 +15°C° 0 mm 1 m/s 761 mmHg 71%
21:00 +14°C° 0 mm 1 m/s 761 mmHg 73%
22:00 +13°C° 0 mm 1 m/s 761 mmHg 76%
23:00 +13°C° 0 mm 1 m/s 761 mmHg 77%

Depois de amanhã, 2 Outubro, Sexta-feira

Tempo Temperatura Precipitação Vento Pressão Humidade
00:00 +12°C° 0 mm 0 m/s 761 mmHg 79%
01:00 +11°C° 0 mm 0 m/s 761 mmHg 80%
02:00 +11°C° 0 mm 0 m/s 761 mmHg 81%
03:00 +11°C° 0 mm 0 m/s 761 mmHg 83%
04:00 +10°C° 0 mm 0 m/s 761 mmHg 84%
05:00 +10°C° 0 mm 0 m/s 761 mmHg 84%
06:00 +10°C° 0 mm 0 m/s 761 mmHg 85%
07:00 +10°C° 0 mm 0 m/s 761 mmHg 85%
08:00 +11°C° 0 mm 0 m/s 761 mmHg 79%
09:00 +13°C° 0 mm 0 m/s 761 mmHg 73%
10:00 +15°C° 0 mm 0 m/s 761 mmHg 67%
11:00 +16°C° 0 mm 0 m/s 761 mmHg 63%
12:00 +17°C° 0 mm 0 m/s 761 mmHg 58%
13:00 +18°C° 0 mm 0 m/s 761 mmHg 53%
14:00 +20°C° 0 mm 1 m/s 761 mmHg 52%
15:00 +20°C° 0 mm 1 m/s 760 mmHg 51%
16:00 +20°C° 0 mm 1 m/s 760 mmHg 50%
17:00 +19°C° 0 mm 1 m/s 760 mmHg 55%
18:00 +16°C° 0 mm 1 m/s 760 mmHg 60%
19:00 +14°C° 0 mm 0 m/s 760 mmHg 66%
20:00 +13°C° 0 mm 0 m/s 760 mmHg 68%
21:00 +13°C° 0 mm 0 m/s 760 mmHg 71%
22:00 +12°C° 0 mm 0 m/s 760 mmHg 73%
23:00 +12°C° 0 mm 0 m/s 760 mmHg 75%

3 Outubro, Sábado

Tempo Temperatura Precipitação Vento Pressão Humidade
00:00 +12°C° 0 mm 0 m/s 760 mmHg 77%
01:00 +11°C° 0 mm 0 m/s 760 mmHg 79%
02:00 +12°C° 0 mm 1 m/s 760 mmHg 81%
03:00 +12°C° 0 mm 1 m/s 760 mmHg 83%
04:00 +11°C° 0 mm 1 m/s 760 mmHg 85%
05:00 +11°C° 0 mm 1 m/s 760 mmHg 87%
06:00 +11°C° 0 mm 1 m/s 760 mmHg 88%
07:00 +10°C° 0 mm 1 m/s 760 mmHg 89%
08:00 +12°C° 0 mm 1 m/s 760 mmHg 82%
09:00 +13°C° 0 mm 1 m/s 760 mmHg 76%
10:00 +15°C° 0 mm 2 m/s 760 mmHg 69%
11:00 +16°C° 0 mm 2 m/s 760 mmHg 64%
12:00 +17°C° 0 mm 2 m/s 760 mmHg 59%
13:00 +18°C° 0 mm 3 m/s 760 mmHg 54%
14:00 +18°C° 0 mm 3 m/s 759 mmHg 54%
15:00 +18°C° 0 mm 3 m/s 759 mmHg 54%
16:00 +18°C° 0 mm 3 m/s 759 mmHg 55%
17:00 +16°C° 0 mm 2 m/s 759 mmHg 61%
18:00 +15°C° 0 mm 2 m/s 759 mmHg 67%
19:00 +13°C° 0 mm 2 m/s 759 mmHg 73%
20:00 +13°C° 0 mm 2 m/s 759 mmHg 76%
21:00 +12°C° 0 mm 2 m/s 760 mmHg 79%
22:00 +12°C° 0 mm 2 m/s 760 mmHg 82%
23:00 +10°C° 0 mm 2 m/s 760 mmHg 85%

4 Outubro, Domingo

Tempo Temperatura Precipitação Vento Pressão Humidade
00:00 +10°C° 0 mm 2 m/s 760 mmHg 88%
01:00 +9°C° 0 mm 2 m/s 760 mmHg 91%
02:00 +9°C° 0 mm 2 m/s 760 mmHg 92%
03:00 +8°C° 0 mm 2 m/s 760 mmHg 92%
04:00 +8°C° 0 mm 2 m/s 760 mmHg 93%
05:00 +8°C° 0 mm 2 m/s 760 mmHg 92%
06:00 +7°C° 0 mm 2 m/s 760 mmHg 92%
07:00 +7°C° 0 mm 2 m/s 760 mmHg 91%
08:00 +8°C° 0 mm 3 m/s 760 mmHg 85%
09:00 +9°C° 0 mm 3 m/s 761 mmHg 78%
10:00 +11°C° 0 mm 3 m/s 761 mmHg 71%
11:00 +11°C° 0 mm 4 m/s 761 mmHg 64%
12:00 +12°C° 0 mm 4 m/s 761 mmHg 57%
13:00 +13°C° 0 mm 4 m/s 761 mmHg 50%
14:00 +12°C° 0 mm 4 m/s 761 mmHg 52%
15:00 +12°C° 0 mm 4 m/s 761 mmHg 53%
16:00 +12°C° 0 mm 4 m/s 761 mmHg 54%
17:00 +10°C° 0 mm 3 m/s 761 mmHg 60%
18:00 +9°C° 0 mm 3 m/s 761 mmHg 66%
19:00 +8°C° 0 mm 3 m/s 761 mmHg 72%
20:00 +7°C° 0 mm 3 m/s 761 mmHg 72%
21:00 +7°C° 0 mm 3 m/s 762 mmHg 71%
22:00 +5°C° 0 mm 3 m/s 762 mmHg 70%
23:00 +4°C° 0 mm 3 m/s 762 mmHg 70%

5 Outubro, Segunda-feira

Tempo Temperatura Precipitação Vento Pressão Humidade
00:00 +4°C° 0 mm 3 m/s 762 mmHg 70%
01:00 +4°C° 0 mm 2 m/s 762 mmHg 70%
02:00 +4°C° 0 mm 2 m/s 762 mmHg 71%
03:00 +4°C° 0 mm 2 m/s 762 mmHg 73%
04:00 +3°C° 0 mm 2 m/s 762 mmHg 75%
05:00 +3°C° 0 mm 2 m/s 762 mmHg 77%
06:00 +3°C° 0 mm 2 m/s 763 mmHg 78%
07:00 +3°C° 0 mm 2 m/s 763 mmHg 80%
08:00 +5°C° 0 mm 2 m/s 763 mmHg 76%
09:00 +6°C° 0 mm 2 m/s 763 mmHg 72%
10:00 +8°C° 0 mm 2 m/s 763 mmHg 68%
11:00 +10°C° 0 mm 1 m/s 763 mmHg 65%
12:00 +11°C° 0 mm 1 m/s 763 mmHg 61%
13:00 +12°C° 0 mm 1 m/s 763 mmHg 58%
14:00 +12°C° 0 mm 1 m/s 763 mmHg 56%
15:00 +12°C° 0 mm 0 m/s 762 mmHg 54%
16:00 +12°C° 0 mm 0 m/s 762 mmHg 52%
17:00 +11°C° 0 mm 1 m/s 762 mmHg 56%
18:00 +10°C° 0 mm 1 m/s 762 mmHg 60%
19:00 +9°C° 0 mm 1 m/s 762 mmHg 64%
20:00 +9°C° 0 mm 1 m/s 762 mmHg 64%
21:00 +8°C° 0 mm 1 m/s 762 mmHg 65%
22:00 +7°C° 0 mm 1 m/s 762 mmHg 66%
23:00 +6°C° 0 mm 0 m/s 762 mmHg 67%
Mostrar mais